RROCI-2

导读

RROCI-2(别名玫瑰)是美国于2024年3月4日8点在范登堡SLC-4E发射场,通过猎鹰9号v1.2(Block5)运载火箭发射入轨的超高分辨率遥感卫星,国际卫星标识符为2024-043A,NORAD编号59124,运行在近地点491km、远地点507km,倾角97.5°的太阳同步轨道,主要为对地观测提供超高分辨率遥感数据服务。

Basic Information
目录编号:
59106
目录名称:
RROCI-2
国际标识:
2024-043J
轨道中心:
EARTH
卫星名称:
RROCI-2
卫星全名:
--
卫星状态:
在轨 (已飞行915 天)
发射日期:
2024-03-04 UTC
国别 :
美国 (US)
星等 :
--
Orbit Information
数据来源 国际轨道数据
星历时间: 2026-09-05T03:56:46+0800
9小时前
查看轨道信息
半长轴: 6944.398km
偏心率: 0.0015576
轨道倾角: 97.852°
近地点辐角 119.327°
升交点赤经 21.296°
平近点角 240.951°
近地点: 555.444km
远地点: 577.078km
周期: 95.987分钟
每日圈数: 15.00206
Detailed Information
使用方式:
暂无
2D Orbit Map
3D Orbit Map
Orbit Altitude Analysis Chart
Orbit Inclination Analysis Chart
Orbit Comprehensive Analysis Chart
View Comprehensive Chart
Conjunction Data List
Event ID Objects TCA Miss Dist (km) Collision Risk Probability Collision Risk Index (CRI) Action
CDM_260906-205705-910606-702221
RROCI-2 (59106)
2026-09-06T
20:57:13+0000
1.595 km
极远距离
2.657279E-6 低风险 0.43
CDM_260831-150105-910606-850421
RROCI-2 (59106)
2026-08-31T
15:01:39+0000
2.861 km
极远距离
1.432254E-6 低风险 0.38